Notices

What's New in latest Release from April 7th, 2021:

- Updated Glossary, including Speed of Maximum Gust, and Total Hourly Precipitation

- Updated national and regional climate services offices contacts and prices information

- Addition of station inventory lists for 1981-2010, 1971-2000, and 1961-1990 Normals.

If you haven't already, please take our survey and provide feedback about our website: https://eccc.sondage-survey.ca/f/LanguageSelection.aspx?s=442ca660-fcf1-47c0-95a9-59707d6fd709

Hourly Data Report for April 13, 2003

TORONTO CITY
ONTARIO

43°40'00.000" N
79°24'00.000" W
112.50 m
6158355
71508
XTO

Download Data

Hourly Data (April 2003)
Hourly Data Report for April 13, 2003
TIME
LST
Temp Definition
°C
Dew Point Definition
°C
Rel Hum Definition
%
Precip. Amount Definition
mm

Wind Dir Definition
10's deg

Wind Spd Definition
km/h
Visibility Definition
km
Stn Press Definition
kPa
Hmdx Definition


Wind Chill Definition


Weather Definition


00:00 3.4 -5.6 52   LegendMM LegendMM LegendMM 100.59     LegendNANA
01:00 2.8 -5.9 53   LegendMM LegendMM LegendMM 100.64     LegendNANA
02:00 2.1 -6.5 53   LegendMM LegendMM LegendMM 100.70     LegendNANA
03:00 1.5 -6.6 55   LegendMM LegendMM LegendMM 100.73     LegendNANA
04:00 1.1 -7.1 54   LegendMM LegendMM LegendMM 100.75     LegendNANA
05:00 1.0 -7.8 52   LegendMM LegendMM LegendMM 100.85     LegendNANA
06:00 0.6 -8.0 52   LegendMM LegendMM LegendMM 100.95     LegendNANA
07:00 1.3 -8.9 47   LegendMM LegendMM LegendMM 101.00     LegendNANA
08:00 2.7 -8.9 42   LegendMM LegendMM LegendMM 101.04     LegendNANA
09:00 5.1 -8.3 37   LegendMM LegendMM LegendMM 101.11     LegendNANA
10:00 6.2 -8.5 34   LegendMM LegendMM LegendMM 101.13     LegendNANA
11:00 6.9 -7.7 34   LegendMM LegendMM LegendMM 101.14     LegendNANA
12:00 7.9 -6.4 36   LegendMM LegendMM LegendMM 101.12     LegendNANA
13:00 7.4 -5.7 39   LegendMM LegendMM LegendMM 101.12     LegendNANA
14:00 7.6 -6.3 37   LegendMM LegendMM LegendMM 101.10     LegendNANA
15:00 7.8 -6.6 35   LegendMM LegendMM LegendMM 101.06     LegendNANA
16:00 7.5 -4.7 42   LegendMM LegendMM LegendMM 101.06     LegendNANA
17:00 6.9 -4.8 43   LegendMM LegendMM LegendMM 101.06     LegendNANA
18:00 7.4 -7.5 34   LegendMM LegendMM LegendMM 101.06     LegendNANA
19:00 6.6 -6.7 38   LegendMM LegendMM LegendMM 101.08     LegendNANA
20:00 5.9 -5.2 45   LegendMM LegendMM LegendMM 101.15     LegendNANA
21:00 6.1 -5.8 42   LegendMM LegendMM LegendMM 101.19     LegendNANA
22:00 6.1 -4.6 46   LegendMM LegendMM LegendMM 101.19     LegendNANA
23:00 6.7 -7.9 34   LegendMM LegendMM LegendMM 101.20     LegendNANA

Notes on Data Quality.

Legend

  • E = Estimated
  • M = Missing
  • NA = Not Available*
  • [empty] = Indicates an unobserved value
Date modified: